Simultaneous Nadir Overpasses (SNOs) Predictions

Prediction of SNOs between GOES-17 and METOP-C Satellite Orbit:

Table of predicted SNOs for the next 14.0 days since TLE Epoch: 6/25/2022
Index Date Time (GOES-17) GOES-17 Lat,Lon METOP-C Lat,Lon Distance(km) Time Diff (sec)
1 06/25/2022 18:43:48 0.05,-137.20 0.31,-138.50 147.78 80
2 06/26/2022 18:25:48 0.05,-137.20 -0.79,-133.51 421.30 80
3 06/28/2022 06:42:09 -0.04,-137.19 -0.26,-138.10 103.67 80
4 06/29/2022 06:24:09 -0.04,-137.19 0.85,-133.11 464.96 80
5 06/30/2022 18:40:21 0.04,-137.19 0.13,-137.68 55.82 80
6 07/03/2022 06:38:42 -0.03,-137.17 -0.05,-137.28 13.35 80
7 07/05/2022 18:39:34 0.02,-137.14 -0.01,-136.85 33.18 80
8 07/07/2022 06:55:54 -0.02,-137.12 -0.99,-141.45 493.26 80
9 07/08/2022 06:37:55 -0.02,-137.11 0.12,-136.46 74.22 80
